FW8095 Weather Reports


Display with metric or nautical units.
time (UTC)temp
F
wind
direction
speed
MPH
gust
MPH
rain 1hr
in
rain 24hr
in
rain mn
in
humidity
%
barometer
mb
20260903190048 97 89 1.0 3.0 0.00 0.00 0.00 50 1016.3
20260903184545 99 91 1.0 5.0 0.00 0.00 0.00 47 1016.4
20260903183042 98 293 1.0 5.0 0.00 0.00 0.00 50 1016.6
20260903181538 98 98 0.0 4.0 0.00 0.00 0.00 51 1016.9
20260903180050 98 279 1.0 6.0 0.00 0.00 0.00 51 1016.9
20260903174600 96 113 2.0 5.0 0.00 0.00 0.00 51 1017.1
20260903173043 98 103 0.0 5.0 0.00 0.00 0.00 49 1017.2
20260903171548 98 0 1.0 3.0 0.00 0.00 0.00 48 1017.4
20260903170105 98 98 1.0 4.0 0.00 0.00 0.00 49 1017.6
20260903164550 97 223 1.0 3.0 0.00 0.00 0.00 54 1017.8
20260903163038 97 87 1.0 4.0 0.00 0.00 0.00 54 1017.9
20260903161546 97 98 1.0 4.0 0.00 0.00 0.00 55 1018.0
20260903160047 96 86 1.0 3.0 0.00 0.00 0.00 56 1018.2
20260903154546 97 96 1.0 3.0 0.00 0.00 0.00 56 1018.4
20260903153045 95 0 1.0 4.0 0.00 0.00 0.00 57 1018.4
20260903151547 93 259 0.0 3.0 0.00 0.00 0.00 61 1018.4
20260903150046 92 0 0.0 2.0 0.00 0.00 0.00 63 1018.3
20260903144548 91 115 1.0 3.0 0.00 0.00 0.00 63 1018.1
20260903143044 90 184 0.0 2.0 0.00 0.00 0.00 67 1018.1
20260903141549 88 0 0.0 0.0 0.00 0.00 0.00 70 1018.2
20260903140047 86 0 0.0 0.0 0.00 0.00 0.00 73 1018.1
20260903134547 84 0 0.0 0.0 0.00 0.00 0.00 77 1018.1
20260903133050 82 0 0.0 0.0 0.00 0.00 0.00 81 1018.3
20260903131555 81 0 0.0 0.0 0.00 0.00 0.00 85 1018.3
20260903130044 79 0 0.0 0.0 0.00 0.00 0.00 86 1018.2
20260903124541 78 0 0.0 0.0 0.00 0.00 0.00 89 1018.1
20260903123048 77 0 0.0 0.0 0.00 0.00 0.00 90 1018.1
20260903121546 76 0 0.0 0.0 0.00 0.00 0.00 92 1017.9
20260903120043 76 0 0.0 0.0 0.00 0.00 0.00 92 1018.0
20260903114545 75 0 0.0 0.0 0.00 0.00 0.00 92 1018.0
20260903113045 75 0 0.0 0.0 0.00 0.00 0.00 92 1017.8
20260903111619 75 0 0.0 0.0 0.00 0.00 0.00 91 1017.6
20260903110043 76 0 0.0 0.0 0.00 0.00 0.00 91 1017.4
20260903104553 76 0 0.0 0.0 0.00 0.00 0.00 91 1017.2
20260903103045 76 0 0.0 0.0 0.00 0.00 0.00 91 1017.3
20260903101548 76 0 0.0 0.0 0.00 0.00 0.00 90 1017.2
20260903100041 76 0 0.0 0.0 0.00 0.00 0.00 90 1017.2
20260903094555 76 0 0.0 0.0 0.00 0.00 0.00 89 1017.3
20260903093048 76 0 0.0 0.0 0.00 0.00 0.00 88 1017.2
20260903091545 76 0 0.0 0.0 0.00 0.00 0.00 87 1017.4
20260903090051 77 0 0.0 0.0 0.00 0.00 0.00 87 1017.2
20260903084545 77 0 0.0 0.0 0.00 0.00 0.00 88 1017.1
20260903083044 77 0 0.0 0.0 0.00 0.00 0.00 88 1017.2
20260903081543 77 0 0.0 0.0 0.00 0.00 0.00 88 1017.1
20260903080047 77 0 0.0 0.0 0.00 0.00 0.00 88 1017.0
20260903074544 77 0 0.0 0.0 0.00 0.00 0.00 87 1017.0
20260903073046 77 0 0.0 0.0 0.00 0.00 0.00 87 1017.0
20260903071547 78 0 0.0 0.0 0.00 0.00 0.00 86 1017.3
20260903070046 78 0 0.0 0.0 0.00 0.00 0.00 86 1017.2
20260903064544 78 0 0.0 0.0 0.00 0.00 0.00 85 1017.3
20260903063041 79 0 0.0 0.0 0.00 0.00 0.00 84 1017.3
20260903061559 79 0 0.0 0.0 0.00 0.00 0.00 84 1017.4
20260903060048 79 0 0.0 0.0 0.00 0.00 0.00 83 1017.3
20260903054542 79 0 0.0 0.0 0.00 0.00 0.00 82 1017.3
20260903053055 79 0 0.0 0.0 0.00 0.00 0.00 81 1017.4
20260903051541 80 0 0.0 0.0 0.00 0.00 0.00 80 1017.3
20260903050045 80 0 0.0 0.0 0.00 0.00 0.00 79 1017.4
20260903044540 81 0 0.0 0.0 0.00 0.00 0.00 79 1017.4
20260903043046 81 0 0.0 0.0 0.00 0.00 0.00 78 1017.3
20260903041546 81 0 0.0 0.0 0.00 0.00 0.00 77 1017.5
20260903040040 82 0 0.0 0.0 0.00 0.00 0.00 76 1017.4
20260903034546 82 0 0.0 0.0 0.00 0.00 0.00 75 1017.5
20260903033051 83 0 0.0 0.0 0.00 0.00 0.00 75 1017.4
20260903031550 83 0 0.0 0.0 0.00 0.00 0.00 74 1017.4
20260903030106 83 0 0.0 0.0 0.00 0.00 0.00 73 1017.4
20260903024548 83 0 0.0 0.0 0.00 0.00 0.00 73 1017.3
20260903023046 83 0 0.0 0.0 0.00 0.00 0.00 71 1017.5
20260903021545 84 0 0.0 0.0 0.00 0.00 0.00 70 1017.3
20260903020041 84 0 0.0 0.0 0.00 0.00 0.00 69 1017.2
20260903014555 85 0 0.0 0.0 0.00 0.00 0.00 69 1017.2
20260903013047 86 0 0.0 0.0 0.00 0.00 0.00 67 1016.8
20260903011552 86 0 0.0 0.0 0.00 0.00 0.00 65 1016.6
20260903010059 87 0 0.0 0.0 0.00 0.00 0.00 64 1016.4
20260903004546 87 0 0.0 0.0 0.00 0.00 0.00 64 1016.5
20260903003044 88 0 0.0 0.0 0.00 0.00 0.00 63 1016.4
20260903001542 88 0 0.0 0.0 0.00 0.00 0.00 62 1016.4
20260903000041 89 0 0.0 0.0 0.00 0.00 0.00 60 1016.5
20260902234546 90 0 0.0 0.0 0.00 0.00 0.00 59 1016.3
20260902233046 91 0 0.0 0.0 0.00 0.00 0.00 57 1016.4
20260902231600 92 0 0.0 3.0 0.00 0.00 0.00 55 1016.3
20260902230048 92 0 0.0 3.0 0.00 0.00 0.00 56 1016.2
20260902224558 92 0 0.0 1.0 0.00 0.00 0.00 57 1016.2
20260902223050 92 0 0.0 0.0 0.00 0.00 0.00 56 1016.3
20260902221600 93 0 0.0 1.0 0.00 0.00 0.00 53 1016.6
20260902220058 94 0 0.0 1.0 0.00 0.00 0.00 51 1016.5
20260902214543 94 314 0.0 4.0 0.00 0.00 0.00 51 1016.5
20260902213041 95 0 0.0 4.0 0.00 0.00 0.00 51 1016.3
20260902211547 95 83 0.0 3.0 0.00 0.00 0.00 49 1016.5
20260902210047 95 0 0.0 4.0 0.00 0.00 0.00 48 1016.5
20260902204549 95 0 1.0 4.0 0.00 0.00 0.00 49 1016.6
20260902203043 96 108 0.0 5.0 0.00 0.00 0.00 49 1016.8
20260902201554 96 0 0.0 2.0 0.00 0.00 0.00 49 1016.9
20260902200048 97 0 0.0 6.0 0.00 0.00 0.00 48 1017.1
20260902194545 97 110 0.0 3.0 0.00 0.00 0.00 47 1017.3
20260902193100 99 96 0.0 8.0 0.00 0.00 0.00 47 1017.6
20260902191545 99 245 2.0 4.0 0.00 0.00 0.00 45 1017.8